time_stamp(utc),avg(mph),gust(mph),direction(deg),12m_air_temp(f),sonic_u(cm/s),sonic_v(cm/s),sonic_w(cm/s),pressure,2m_air_temp(f),pyranometer(W/m^2)
"2018-05-22 00:02:07+00",8.0,10.0,,59.7,77,-309,-10,1021.18,59.8,0
"2018-05-22 00:07:07+00",8.2,9.2,,59.5,76,-347,-11,1021.23,59.5,0
"2018-05-22 00:12:07+00",8.5,9.5,,59.5,80,-334,-6,1021.16,59.4,0
"2018-05-22 00:17:07+00",7.1,9.1,,59.4,58,-283,2,1021.21,59.3,0
"2018-05-22 00:22:07+00",6.2,8.2,,59.3,31,-259,-8,1021.17,59.1,0
"2018-05-22 00:27:07+00",6.8,7.8,,59.3,45,-281,-2,1021.18,59,0
"2018-05-22 00:32:07+00",6.0,7.0,,59.2,51,-242,0,1021.15,59,0
"2018-05-22 00:37:07+00",5.9,7.9,,59.2,21,-257,-6,1021.21,58.9,0
"2018-05-22 00:42:07+00",5.0,7.0,,59.2,25,-206,-2,1021.22,58.8,0
"2018-05-22 00:47:07+00",6.4,7.4,,59.2,-29,-267,-16,1021.27,58.7,0
"2018-05-22 00:52:07+00",5.4,6.4,,59.2,-60,-206,-10,1021.24,58.8,0
"2018-05-22 00:57:07+00",3.5,4.5,,59.2,-31,-144,8,1021.31,58.9,0
"2018-05-22 01:02:07+00",5.0,6.0,,59.1,-52,-208,3,1021.34,58.8,0
"2018-05-22 01:07:07+00",5.4,6.4,,59.1,-66,-215,-4,1021.32,58.7,0
"2018-05-22 01:12:07+00",5.8,6.8,,59,-71,-230,-3,1021.35,58.6,0
"2018-05-22 01:17:07+00",4.7,5.7,,58.9,-51,-184,5,1021.44,58.6,0
"2018-05-22 01:22:07+00",6.0,7.0,,58.9,-104,-233,6,1021.46,58.4,0
"2018-05-22 01:27:07+00",5.3,6.3,,58.8,-75,-209,-3,1021.35,58.3,0
"2018-05-22 01:32:07+00",5.7,6.7,,58.7,-66,-228,-2,1021.27,58.3,0
"2018-05-22 01:37:07+00",5.0,6.0,,58.7,-63,-200,-2,1021.28,58.2,0
"2018-05-22 01:42:07+00",4.8,5.8,,58.7,-61,-192,-6,1021.3,58.2,0
"2018-05-22 01:47:07+00",4.8,4.8,,58.9,-34,-193,-11,1021.14,58.2,0
"2018-05-22 01:52:07+00",4.3,5.3,,58.9,-28,-169,-4,1021.18,58.3,0
"2018-05-22 01:57:07+00",5.1,6.1,,59,-38,-206,-5,1021.26,58.3,0
"2018-05-22 02:02:07+00",3.7,4.7,,59,-33,-144,4,1021.2,58.4,0
"2018-05-22 02:07:07+00",4.4,4.4,,59.1,-36,-179,-3,1021.2,58.3,0
"2018-05-22 02:12:07+00",5.1,6.1,,59,-50,-210,-6,1021.11,58.3,0
"2018-05-22 02:17:07+00",4.8,5.8,,58.9,-12,-194,-2,1021.04,58.2,0
"2018-05-22 02:22:07+00",5.8,6.8,,58.9,-58,-238,-3,1021.06,58.1,0
"2018-05-22 02:27:07+00",5.6,6.6,,58.8,-58,-221,-10,1021,58.1,0
"2018-05-22 02:32:07+00",5.0,6.0,,58.8,-49,-207,-3,1020.97,58.1,0
"2018-05-22 02:37:07+00",5.9,6.9,,58.8,-56,-240,-5,1020.91,58.1,0
"2018-05-22 02:42:07+00",6.1,7.1,,58.8,-13,-253,-10,1020.86,58.1,0
"2018-05-22 02:47:07+00",6.3,7.3,,58.9,-41,-261,-15,1020.9,58.1,0
"2018-05-22 02:52:07+00",6.3,7.3,,58.9,-14,-266,-5,1020.95,58.2,0
"2018-05-22 02:57:07+00",5.9,7.9,,58.8,-41,-237,-6,1020.88,58.2,0
"2018-05-22 03:02:07+00",6.6,7.6,,58.7,4,-275,-4,1020.87,58.1,0
"2018-05-22 03:07:07+00",6.2,8.2,,58.6,5,-252,-8,1020.96,58,0
"2018-05-22 03:12:07+00",6.8,8.8,,58.5,-34,-272,-8,1020.97,57.9,0
"2018-05-22 03:17:07+00",6.9,7.9,,58.5,-54,-281,-9,1020.98,57.9,0
"2018-05-22 03:22:07+00",8.0,10.0,,58.5,-26,-335,-25,1020.99,57.9,0
"2018-05-22 03:27:07+00",6.9,7.9,,58.4,-40,-286,-13,1020.92,57.9,0
"2018-05-22 03:32:07+00",6.0,7.0,,58.3,-56,-236,-12,1021.01,57.8,0
"2018-05-22 03:37:07+00",6.9,7.9,,58.2,-104,-277,1,1020.99,57.7,0
"2018-05-22 03:42:07+00",6.8,7.8,,58.2,-96,-273,-4,1021,57.6,0
"2018-05-22 03:47:07+00",5.9,6.9,,58.1,-36,-246,-13,1020.86,57.6,0
"2018-05-22 03:52:07+00",5.6,6.6,,58.1,-35,-230,-7,1020.75,57.6,0
"2018-05-22 03:57:07+00",5.8,6.8,,58.1,-46,-236,-9,1020.74,57.6,0
"2018-05-22 04:02:07+00",5.8,6.8,,58,-59,-231,1,1020.8,57.6,0
"2018-05-22 04:07:07+00",5.5,6.5,,58,-74,-218,-6,1020.82,57.5,0
"2018-05-22 04:12:07+00",4.7,4.7,,58,-63,-183,2,1020.79,57.4,0
"2018-05-22 04:17:07+00",4.4,5.4,,58,-48,-182,-1,1020.79,57.4,0
"2018-05-22 04:22:07+00",6.5,7.5,,58,-73,-265,-9,1020.83,57.4,0
"2018-05-22 04:27:07+00",5.8,6.8,,58,-51,-233,-8,1020.73,57.4,0
"2018-05-22 04:32:07+00",3.9,4.9,,58,-31,-155,-6,1020.65,57.4,0
"2018-05-22 04:37:07+00",3.8,3.8,,58,-36,-148,-4,1020.61,57.5,0
"2018-05-22 04:42:07+00",4.2,5.2,,58,-80,-157,1,1020.55,57.4,0
"2018-05-22 04:47:07+00",3.7,4.7,,58,-55,-141,-2,1020.51,57.3,0
"2018-05-22 04:52:07+00",4.8,4.8,,58,-24,-199,-6,1020.57,57.3,0
"2018-05-22 04:57:07+00",5.4,6.4,,58.1,-39,-221,-3,1020.56,57.4,0
"2018-05-22 05:02:07+00",4.3,4.3,,58.1,-30,-172,-5,1020.48,57.5,0
"2018-05-22 05:07:07+00",4.2,5.2,,58.1,-84,-152,2,1020.46,57.4,0
"2018-05-22 05:12:07+00",6.1,6.1,,58.1,-118,-225,0,1020.48,57.3,0
"2018-05-22 05:17:07+00",6.8,7.8,,58.2,-141,-253,0,1020.54,57.1,0
"2018-05-22 05:22:07+00",6.6,7.6,,58.1,-164,-249,2,1020.62,57,0
"2018-05-22 05:27:07+00",6.2,7.2,,58.2,-181,-215,4,1020.54,57.2,0
"2018-05-22 05:32:07+00",4.8,4.8,,58.2,-124,-173,11,1020.48,57.3,0
"2018-05-22 05:37:07+00",5.6,6.6,,58.3,-168,-178,4,1020.47,57.4,0
"2018-05-22 05:42:07+00",5.2,6.2,,58.3,-160,-165,2,1020.36,57.4,0
"2018-05-22 05:47:07+00",4.9,4.9,,58.3,-160,-164,3,1020.25,57.4,0
"2018-05-22 05:52:07+00",5.3,6.3,,58.4,-146,-181,4,1020.31,57.4,0
"2018-05-22 05:57:07+00",5.3,6.3,,58.4,-145,-190,2,1020.29,57.3,0
"2018-05-22 06:02:07+00",5.8,6.8,,58.4,-141,-214,0,1020.36,57.2,0
"2018-05-22 06:07:07+00",6.7,7.7,,58.5,-156,-254,0,1020.36,57.2,0
"2018-05-22 06:12:07+00",6.3,6.3,,58.5,-114,-241,-3,1020.32,57.3,0
"2018-05-22 06:17:07+00",4.7,5.7,,58.3,-66,-189,2,1020.36,57.4,0
"2018-05-22 06:22:07+00",5.7,6.7,,58.2,-94,-223,-3,1020.39,57.4,0
"2018-05-22 06:27:07+00",4.1,5.1,,58.1,-18,-166,-3,1020.34,57.4,0
"2018-05-22 06:32:07+00",5.8,6.8,,58.1,-58,-235,-2,1020.57,57.3,0
"2018-05-22 06:37:07+00",6.2,7.2,,58,-9,-256,-14,1020.47,57.4,0
"2018-05-22 06:42:07+00",4.9,5.9,,58,-31,-196,-4,1020.54,57.4,0
"2018-05-22 06:47:07+00",4.6,5.6,,58,-16,-191,-4,1020.47,57.4,0
"2018-05-22 06:52:07+00",3.0,3.0,,58,27,-120,-4,1020.45,57.5,0
"2018-05-22 06:57:07+00",2.7,3.7,,58,2,-110,-2,1020.41,57.5,0
"2018-05-22 07:02:07+00",2.9,2.9,,58,10,-118,-1,1020.32,57.5,0
"2018-05-22 07:07:07+00",3.1,3.1,,58,-3,-123,-1,1020.38,57.5,0
"2018-05-22 07:12:07+00",3.2,4.2,,58.1,-48,-123,0,1020.41,57.5,0
"2018-05-22 07:17:07+00",3.9,3.9,,58,-47,-156,-2,1020.38,57.5,0
"2018-05-22 07:22:07+00",3.1,3.1,,58.1,-4,-125,-1,1020.32,57.5,0
"2018-05-22 07:27:07+00",4.7,4.7,,58.1,-54,-185,-5,1020.35,57.5,0
"2018-05-22 07:32:07+00",5.1,6.1,,58.1,-38,-205,-2,1020.38,57.6,0
"2018-05-22 07:37:07+00",5.1,6.1,,58.1,-55,-203,-7,1020.44,57.6,0
"2018-05-22 07:42:07+00",4.1,5.1,,58.1,-51,-158,-6,1020.44,57.5,0
"2018-05-22 07:47:07+00",4.5,4.5,,58.1,-16,-185,-4,1020.31,57.6,0
"2018-05-22 07:52:07+00",4.7,4.7,,58.2,-7,-190,-6,1020.36,57.6,0
"2018-05-22 07:57:07+00",4.6,4.6,,58.2,-10,-187,-3,1020.28,57.6,0
"2018-05-22 08:02:07+00",4.4,5.4,,58.2,-13,-176,-5,1020.4,57.5,0
"2018-05-22 08:07:07+00",3.7,4.7,,58.2,3,-150,-4,1020.29,57.5,0
"2018-05-22 08:12:07+00",3.2,3.2,,58.2,0,-130,-1,1020.48,57.4,0
"2018-05-22 08:17:07+00",2.8,3.8,,58.2,25,-109,-3,1020.33,57.4,0
"2018-05-22 08:22:07+00",2.3,3.3,,58.2,74,-54,-3,1020.33,57.4,0
"2018-05-22 08:27:07+00",2.5,2.5,,58.2,58,-83,-2,1020.35,57.2,0
"2018-05-22 08:32:07+00",2.8,2.8,,58.1,64,-89,-3,1020.4,57,0
"2018-05-22 08:37:07+00",3.6,3.6,,58,118,-89,-2,1020.42,57,0
"2018-05-22 08:42:07+00",4.9,4.9,,58,157,-137,-1,1020.39,56.8,0
"2018-05-22 08:47:07+00",5.0,5.0,,57.9,104,-182,1,1020.26,56.7,0
"2018-05-22 08:52:07+00",5.0,5.0,,57.8,137,-164,-4,1020.1,56.7,0
"2018-05-22 08:57:07+00",5.5,5.5,,57.8,168,-162,-5,1019.99,56.6,0
"2018-05-22 09:02:07+00",5.2,5.2,,57.8,184,-121,-3,1019.89,56.4,0
"2018-05-22 09:07:07+00",4.1,5.1,,57.9,142,-96,-1,1020.02,56.3,0
"2018-05-22 09:12:07+00",5.1,6.1,,57.9,138,-163,-2,1019.96,56.3,0
"2018-05-22 09:17:07+00",5.1,6.1,,58,136,-165,1,1019.87,56.4,0
"2018-05-22 09:22:07+00",5.4,6.4,,57.9,139,-185,-5,1019.93,56.5,0
"2018-05-22 09:27:07+00",5.5,5.5,,57.9,124,-194,-4,1019.85,56.5,0
"2018-05-22 09:32:07+00",4.8,4.8,,57.8,105,-178,-7,1019.97,56.5,0
"2018-05-22 09:37:07+00",5.3,6.3,,57.9,143,-170,-2,1019.96,56.5,0
"2018-05-22 09:42:07+00",6.9,7.9,,57.8,190,-224,-7,1019.93,56.5,0
"2018-05-22 09:47:07+00",6.0,7.0,,57.9,130,-223,-4,1019.92,56.6,0
"2018-05-22 09:52:07+00",6.5,7.5,,57.9,183,-209,-6,1019.89,56.8,0
"2018-05-22 09:57:07+00",8.0,8.0,,58,277,-210,-2,1019.89,56.7,0
"2018-05-22 10:02:07+00",8.6,9.6,,58.1,303,-217,-2,1019.76,56.8,0
"2018-05-22 10:07:07+00",9.1,10.1,,58.2,341,-201,0,1019.73,57.1,0
"2018-05-22 10:12:07+00",8.9,9.9,,58.2,342,-184,4,1019.67,57.2,0
"2018-05-22 10:17:07+00",9.1,11.1,,58.1,359,-169,4,1019.64,57.3,0
"2018-05-22 10:22:07+00",11.3,12.3,,58.1,446,-214,4,1019.63,57.4,0.1
"2018-05-22 10:27:07+00",11.9,12.9,,58.1,469,-243,-4,1019.73,57.6,1.1
"2018-05-22 10:32:07+00",13.1,14.1,,58.1,500,-286,-5,1019.65,57.7,2.4
"2018-05-22 10:37:07+00",13.5,14.5,,58.1,550,-240,5,1019.58,57.8,8.6
"2018-05-22 10:42:07+00",12.6,15.6,,58.1,507,-222,2,1019.62,57.9,16.8
"2018-05-22 10:47:07+00",10.4,11.4,,58.1,408,-208,10,1019.81,58,24.6
"2018-05-22 10:52:07+00",10.6,12.6,,58.1,406,-230,16,1019.85,58.1,35.4
"2018-05-22 10:57:07+00",10.1,11.1,,58.2,378,-233,-3,1019.92,58.2,32.8
"2018-05-22 11:02:07+00",9.9,10.9,,58.4,356,-251,-9,1019.96,58.5,51.3
"2018-05-22 11:07:07+00",10.0,11.0,,58.5,350,-251,-14,1019.94,58.7,41.9
"2018-05-22 11:12:07+00",8.8,10.8,,58.6,323,-209,5,1020,58.9,42.8
"2018-05-22 11:17:07+00",7.3,8.3,,58.6,232,-213,4,1020.14,59,29.7
"2018-05-22 11:22:07+00",8.3,9.3,,58.5,288,-223,-9,1020.11,58.9,32.5
"2018-05-22 11:27:07+00",7.3,8.3,,58.6,274,-158,3,1020.16,59,37.8
"2018-05-22 11:32:07+00",7.1,8.1,,58.6,234,-203,4,1020.26,59,39.1
"2018-05-22 11:37:07+00",8.6,9.6,,58.6,283,-248,-9,1020.2,59,35.6
"2018-05-22 11:42:07+00",7.9,8.9,,58.7,286,-186,22,1020.12,59.2,34.6
"2018-05-22 11:47:07+00",9.8,10.8,,58.7,380,-207,17,1020.19,59.2,39.7
"2018-05-22 11:52:07+00",9.5,10.5,,58.8,346,-223,1,1020.16,59.3,51.5
"2018-05-22 11:57:07+00",9.7,10.7,,58.7,332,-265,-11,1020.23,59.3,57.2
"2018-05-22 12:02:07+00",7.5,9.5,,58.9,231,-237,13,1020.41,59.5,58.2
"2018-05-22 12:07:07+00",8.1,10.1,,59.1,221,-267,4,1020.54,59.6,67.6
"2018-05-22 12:12:07+00",5.6,6.6,,59.4,131,-198,16,1020.53,59.7,61.8
"2018-05-22 12:17:07+00",8.0,9.0,,59.6,209,-279,-9,1020.66,59.9,75.6
"2018-05-22 12:22:07+00",7.4,8.4,,59.8,148,-287,5,1020.75,60.2,120.2
"2018-05-22 12:27:07+00",9.0,10.0,,59.8,219,-321,-16,1020.74,60.5,122.1
"2018-05-22 12:32:07+00",8.9,9.9,,60.1,158,-343,-9,1020.85,60.8,173.7
"2018-05-22 12:37:07+00",8.9,9.9,,60.4,179,-337,-6,1020.76,61.3,147.3
"2018-05-22 12:42:07+00",9.5,10.5,,60.5,173,-370,-45,1020.81,61.4,141.4
"2018-05-22 12:47:07+00",9.4,11.4,,60.7,169,-369,-20,1020.8,61.5,196.3
"2018-05-22 12:52:07+00",10.1,11.1,,60.9,184,-407,-13,1020.8,62.1,289.5
"2018-05-22 12:57:07+00",11.2,12.2,,60.8,249,-417,-54,1020.72,62.2,245
"2018-05-22 13:02:07+00",10.8,11.8,,61,197,-422,-6,1020.81,62.7,335.6
"2018-05-22 13:07:07+00",11.4,12.4,,61.2,214,-444,-16,1020.8,63.2,302.1
"2018-05-22 13:12:07+00",9.9,12.9,,61,139,-387,17,1020.86,62.7,146.7
"2018-05-22 13:17:07+00",11.7,13.7,,60.7,260,-430,1,1020.73,62,90.1
"2018-05-22 13:22:07+00",12.0,14.0,,60.4,253,-457,-12,1020.65,61.5,66.1
"2018-05-22 13:27:07+00",11.7,12.7,,60.2,298,-406,-22,1020.66,61.2,53.8
"2018-05-22 13:32:07+00",11.8,12.8,,59.9,222,-458,-15,1020.69,60.8,79.8
"2018-05-22 13:37:07+00",10.2,11.2,,60.3,256,-361,17,1020.61,61.2,167.8
"2018-05-22 13:42:07+00",12.2,14.2,,60.6,329,-419,10,1020.49,61.9,242.7
"2018-05-22 13:47:07+00",13.4,14.4,,60.6,404,-416,-5,1020.49,62.4,382.4
"2018-05-22 13:52:07+00",10.7,11.7,,61,325,-335,5,1020.55,63,276.1
"2018-05-22 13:57:07+00",11.0,13.0,,61,286,-381,-18,1020.51,63,244.6
"2018-05-22 14:02:07+00",12.6,14.6,,61.2,253,-483,-29,1020.58,63.1,369.2
"2018-05-22 14:07:07+00",11.3,12.3,,61.6,308,-376,25,1020.49,63.6,334.2
"2018-05-22 14:12:07+00",12.6,13.6,,61.6,307,-450,-20,1020.57,63.7,316.7
"2018-05-22 14:17:07+00",11.3,14.3,,61.7,216,-434,-3,1020.51,63.7,226.4
"2018-05-22 14:22:07+00",12.0,13.0,,61.2,264,-449,-23,1020.31,63.1,160.6
"2018-05-22 14:27:07+00",12.4,14.4,,61.2,226,-484,-25,1020.37,62.9,218.1
"2018-05-22 14:32:07+00",12.1,13.1,,60.9,266,-451,-31,1020.29,62.7,256.6
"2018-05-22 14:37:07+00",11.6,13.6,,61.3,325,-383,-14,1020.18,62.9,229.5
"2018-05-22 14:42:07+00",12.9,13.9,,61.1,412,-381,5,1020.24,63.2,254.3
"2018-05-22 14:47:07+00",12.5,13.5,,60.8,343,-420,-15,1020.25,62.7,192.7
"2018-05-22 14:52:07+00",9.8,10.8,,61,237,-355,4,1020.3,62.9,277.2
"2018-05-22 14:57:07+00",11.1,13.1,,60.7,248,-414,-32,1020.25,62.6,298.6
"2018-05-22 15:02:07+00",10.6,12.6,,61.2,326,-327,-13,1020.32,63.7,572.8
"2018-05-22 15:07:07+00",10.9,11.9,,61.2,275,-381,-32,1020.2,63.7,352.5
"2018-05-22 15:12:07+00",11.8,12.8,,61.1,356,-371,-18,1020.14,63.9,205.4
"2018-05-22 15:17:07+00",11.4,12.4,,61,373,-331,-1,1020.12,63.4,186.2
"2018-05-22 15:22:07+00",11.5,12.5,,61,355,-356,-13,1020.14,63.2,169.7
"2018-05-22 15:27:07+00",10.1,12.1,,61,323,-298,20,1020.1,63.1,237.5
"2018-05-22 15:32:07+00",9.9,10.9,,61.2,353,-259,3,1020.02,63.6,302.9
"2018-05-22 15:37:07+00",10.7,12.7,,61.1,351,-309,25,1019.89,63.6,190.8
"2018-05-22 15:42:07+00",10.2,13.2,,61,344,-270,33,1019.89,63.4,213.7
"2018-05-22 15:47:07+00",10.4,12.4,,61.2,363,-277,6,1019.81,63.7,353.5
"2018-05-22 15:52:07+00",9.6,11.6,,61.4,254,-311,7,1019.91,63.6,208.8
"2018-05-22 15:57:07+00",10.2,12.2,,61.4,317,-304,-4,1019.81,63.6,251.1
"2018-05-22 16:02:07+00",12.5,13.5,,61.6,382,-385,-24,1019.62,63.7,221.7
"2018-05-22 16:07:07+00",10.9,12.9,,61.5,324,-343,-24,1019.53,63.5,180.2
"2018-05-22 16:12:07+00",9.9,11.9,,61.4,363,-237,35,1019.46,63.6,230.6
"2018-05-22 16:17:07+00",11.6,12.6,,61.4,370,-334,-19,1019.35,63.8,220.9
"2018-05-22 16:22:07+00",11.1,13.1,,61.4,322,-362,-30,1019.42,63.8,453.6
"2018-05-22 16:27:07+00",9.8,10.8,,62,336,-271,-2,1019.34,64.2,283.3
"2018-05-22 16:32:07+00",11.4,13.4,,62.2,311,-387,-18,1019.37,64.6,288.9
"2018-05-22 16:37:07+00",11.0,13.0,,62.4,218,-424,-18,1019.3,64.5,247.2
"2018-05-22 16:42:07+00",10.6,11.6,,62.3,225,-397,-23,1019.2,64.6,501.3
"2018-05-22 16:47:07+00",10.8,11.8,,62.3,366,-301,23,1019.28,64.8,282.4
"2018-05-22 16:52:07+00",9.7,10.7,,61.9,338,-250,13,1019.23,64.9,212.5
"2018-05-22 16:57:07+00",9.7,10.7,,61.9,247,-342,-16,1019.16,64.3,146.4
"2018-05-22 17:02:07+00",8.4,10.4,,61.7,273,-236,27,1019.16,64.1,164.7
"2018-05-22 17:07:07+00",9.2,11.2,,61.8,251,-305,5,1019.06,64,146
"2018-05-22 17:12:07+00",9.8,11.8,,61.7,253,-339,-4,1018.96,63.6,96.4
"2018-05-22 17:17:07+00",10.5,13.5,,61.6,267,-368,-20,1018.88,63.3,121.4
"2018-05-22 17:22:07+00",10.4,12.4,,61.8,315,-315,31,1018.89,63.2,136
"2018-05-22 17:27:07+00",11.4,12.4,,61.4,345,-356,-12,1018.69,63,139.2
"2018-05-22 17:32:07+00",11.0,12.0,,61.5,322,-341,6,1018.65,63.2,124.6
"2018-05-22 17:37:07+00",11.4,12.4,,61.2,230,-438,-24,1018.53,62.8,135.5
"2018-05-22 17:42:07+00",11.0,13.0,,61.1,307,-371,-17,1018.45,63,280.6
"2018-05-22 17:47:07+00",12.5,14.5,,61.4,240,-483,-12,1018.43,63.3,305.7
"2018-05-22 17:52:07+00",11.0,13.0,,61.7,246,-404,-22,1018.2,63.6,218.2
"2018-05-22 17:57:07+00",9.7,11.7,,61.9,262,-322,32,1018.27,63.9,132.1
"2018-05-22 18:02:07+00",10.5,11.5,,61.8,163,-418,-8,1018.18,63.5,99.6
"2018-05-22 18:07:07+00",9.9,10.9,,61.8,254,-343,7,1018.06,63.3,164
"2018-05-22 18:12:07+00",11.1,12.1,,61.8,285,-389,-39,1017.93,63.5,255.3
"2018-05-22 18:17:07+00",9.2,11.2,,61.7,278,-286,-11,1017.82,63.9,191.6
"2018-05-22 18:22:07+00",9.1,11.1,,61.9,267,-280,18,1017.78,64,285.9
"2018-05-22 18:27:07+00",9.5,11.5,,62.1,235,-334,4,1017.76,64.3,213.4
"2018-05-22 18:32:07+00",9.6,12.6,,62,176,-365,-10,1017.78,63.8,117.1
"2018-05-22 18:37:07+00",8.2,10.2,,61.9,150,-321,13,1017.75,63.4,55.4
"2018-05-22 18:42:07+00",7.8,8.8,,61.8,55,-326,-11,1017.99,62.9,7.5
"2018-05-22 18:47:07+00",7.1,8.1,,61.3,-175,-263,1,1018.52,62.3,0
"2018-05-22 18:52:07+00",4.6,5.6,,61,50,-177,-1,1018.09,62.1,13.8
"2018-05-22 18:57:07+00",5.8,7.8,,61,82,-228,-3,1017.86,61.9,35.5
"2018-05-22 19:02:07+00",8.9,9.9,,60.8,244,-301,-17,1017.55,61.5,41.9
"2018-05-22 19:07:07+00",8.9,9.9,,60.4,320,-223,-6,1017.27,61.2,20.9
"2018-05-22 19:12:07+00",4.6,5.6,,60.3,149,-125,-7,1017.35,61,17.9
"2018-05-22 19:17:07+00",4.9,5.9,,60.2,169,-121,11,1017.41,61,40.1
"2018-05-22 19:22:07+00",5.7,6.7,,60.3,196,-143,8,1017.23,61,66.6
"2018-05-22 19:27:07+00",4.1,5.1,,60.3,106,-132,4,1017.45,61,56
"2018-05-22 19:32:07+00",3.2,4.2,,60.5,30,-127,3,1017.26,61.1,65.2
"2018-05-22 19:37:07+00",3.7,4.7,,60.6,98,-110,16,1017.13,61.4,42.6
"2018-05-22 19:42:07+00",3.4,4.4,,60.6,107,-89,-5,1017.08,61.3,30.2
"2018-05-22 19:47:07+00",6.3,7.3,,60.6,269,-46,7,1016.71,61.5,76
"2018-05-22 19:52:07+00",7.6,8.6,,60.6,316,-112,0,1016.47,61.5,99.8
"2018-05-22 19:57:07+00",5.4,6.4,,60.6,220,-79,-1,1016.58,61.6,71.2
"2018-05-22 20:02:07+00",7.1,8.1,,60.5,307,-24,-9,1016.32,61.5,72.6
"2018-05-22 20:07:07+00",6.4,8.4,,60.5,258,-95,-5,1016.31,61.6,87.8
"2018-05-22 20:12:07+00",5.3,6.3,,60.5,227,-48,1,1016.3,61.6,86.7
"2018-05-22 20:17:07+00",5.1,6.1,,60.6,199,-84,6,1016.3,61.7,92.6
"2018-05-22 20:22:07+00",5.5,6.5,,60.7,219,-99,1,1016.23,61.9,81.8
"2018-05-22 20:27:07+00",6.2,7.2,,60.8,212,-160,-6,1016.26,61.9,61
"2018-05-22 20:32:07+00",5.7,6.7,,60.8,201,-140,0,1016.28,62,48.2
"2018-05-22 20:37:07+00",6.2,7.2,,60.8,237,-127,7,1016.13,62.1,131.8
"2018-05-22 20:42:07+00",6.9,7.9,,60.9,282,-109,1,1016.04,62.3,148
"2018-05-22 20:47:07+00",6.0,7.0,,60.9,243,-89,11,1016,62.4,170.4
"2018-05-22 20:52:07+00",5.5,6.5,,61.1,236,-5,-2,1016.02,62.8,132.5
"2018-05-22 20:57:07+00",6.3,7.3,,61.2,272,44,16,1015.96,63.1,145.6
"2018-05-22 21:02:07+00",5.6,6.6,,61.2,241,-8,9,1015.98,63.3,82.8
"2018-05-22 21:07:07+00",5.9,6.9,,61.2,244,-47,-23,1015.89,63,71.5
"2018-05-22 21:12:07+00",5.5,6.5,,61.2,225,-46,-22,1015.93,63,78.5
"2018-05-22 21:17:07+00",6.6,7.6,,61.1,279,-53,-21,1015.78,62.8,98.6
"2018-05-22 21:22:07+00",6.7,7.7,,61.3,269,-115,-27,1015.86,62.9,220.7
"2018-05-22 21:27:07+00",6.5,7.5,,61.3,256,-108,-33,1015.73,63.2,101.7
"2018-05-22 21:32:07+00",7.8,8.8,,61.2,320,-96,-48,1015.64,63,78.9
"2018-05-22 21:37:07+00",7.0,7.0,,61,304,-25,-25,1015.64,62.7,95
"2018-05-22 21:42:07+00",7.3,8.3,,61,312,-61,-7,1015.66,62.6,73.2
"2018-05-22 21:47:07+00",7.6,8.6,,61,327,-62,-31,1015.61,62.5,64.9
"2018-05-22 21:52:07+00",8.0,9.0,,60.8,354,-66,-31,1015.62,62.2,45.4
"2018-05-22 21:57:07+00",8.4,8.4,,60.5,372,-48,-31,1015.6,61.9,29.7
"2018-05-22 22:02:07+00",6.2,7.2,,60.5,267,-58,-2,1015.62,61.6,27.2
"2018-05-22 22:07:07+00",7.4,8.4,,60.4,328,9,23,1015.55,61.4,27.6
"2018-05-22 22:12:07+00",6.9,7.9,,60.3,298,-6,-8,1015.74,61.4,22.9
"2018-05-22 22:17:07+00",6.0,7.0,,60.3,257,34,52,1015.64,61.4,16.8
"2018-05-22 22:22:07+00",6.7,7.7,,60.3,293,-5,22,1015.73,61.4,17.7
"2018-05-22 22:27:07+00",6.0,7.0,,60.3,259,46,18,1015.85,61.3,15.6
"2018-05-22 22:32:07+00",4.8,5.8,,60.3,200,53,27,1015.89,61.3,5.6
"2018-05-22 22:37:07+00",6.3,7.3,,60.4,269,-44,3,1015.86,61.4,1.1
"2018-05-22 22:42:07+00",5.9,6.9,,60.3,257,18,10,1015.79,61.3,0
"2018-05-22 22:47:07+00",6.0,7.0,,60.4,263,17,14,1015.77,61.2,0
"2018-05-22 22:52:07+00",6.2,6.2,,60.4,266,-4,17,1015.57,61.2,0
"2018-05-22 22:57:07+00",5.7,6.7,,60.4,244,38,21,1015.66,61.1,0
"2018-05-22 23:02:07+00",6.3,7.3,,60.5,270,35,18,1015.52,61,0
"2018-05-22 23:07:07+00",7.3,8.3,,60.4,315,61,8,1015.29,60.9,0
"2018-05-22 23:12:07+00",8.3,9.3,,60.3,366,18,25,1015.12,60.8,0
"2018-05-22 23:17:07+00",6.1,7.1,,60.3,262,71,15,1015.34,60.8,0
"2018-05-22 23:22:07+00",6.6,6.6,,60.1,290,41,4,1015.28,60.6,0
"2018-05-22 23:27:07+00",6.5,7.5,,60,254,132,0,1015.31,60.5,0
"2018-05-22 23:32:07+00",5.0,6.0,,60,212,47,0,1015.2,60.5,0
"2018-05-22 23:37:07+00",5.1,6.1,,60.1,218,17,5,1015.09,60.4,0
"2018-05-22 23:42:07+00",4.9,5.9,,60.1,205,51,17,1015.14,60.4,0
"2018-05-22 23:47:07+00",4.3,4.3,,60.1,177,61,11,1015.13,60.4,0
"2018-05-22 23:52:07+00",4.5,5.5,,60.1,191,7,9,1015.13,60.4,0
"2018-05-22 23:57:07+00",4.4,5.4,,60.2,182,-3,33,1015.08,60.4,0
